TimeEST,TemperatureF,Dew PointF,Humidity,Sea Level PressureIn,VisibilityMPH,Wind Direction,Wind SpeedMPH,Gust SpeedMPH,PrecipitationIn,Events,Conditions,WindDirDegrees,DateUTC
12:15 AM,36.7,26.2,66,30.03,10.0,SE,4.6,-,N/A,,Overcast,140,2012-11-07 05:15:00
12:35 AM,36.7,26.1,65,30.03,10.0,SE,4.6,-,N/A,,Overcast,140,2012-11-07 05:35:00
12:55 AM,36.7,26.2,66,30.03,10.0,SE,3.5,-,N/A,,Overcast,140,2012-11-07 05:55:00
1:15 AM,36.7,27.1,68,30.03,10.0,SE,5.8,-,N/A,,Overcast,130,2012-11-07 06:15:00
1:35 AM,36.5,27.0,68,30.04,10.0,SE,3.5,-,N/A,,Overcast,140,2012-11-07 06:35:00
1:55 AM,36.3,27.3,70,30.04,10.0,SSE,4.6,-,N/A,,Scattered Clouds,150,2012-11-07 06:55:00
2:15 AM,36.1,27.3,70,30.04,10.0,SSE,4.6,-,N/A,,Scattered Clouds,150,2012-11-07 07:15:00
2:35 AM,36.5,27.1,69,30.05,10.0,SSE,4.6,-,N/A,,Mostly Cloudy,150,2012-11-07 07:35:00
2:55 AM,36.5,27.1,69,30.04,10.0,SSE,5.8,-,N/A,,Overcast,150,2012-11-07 07:55:00
3:15 AM,36.0,27.1,70,30.05,10.0,SSE,3.5,-,N/A,,Overcast,150,2012-11-07 08:15:00
3:55 AM,35.2,27.3,73,30.05,10.0,Calm,Calm,-,N/A,,Mostly Cloudy,0,2012-11-07 08:55:00
4:15 AM,34.3,27.5,76,30.05,10.0,Calm,Calm,-,N/A,,Overcast,0,2012-11-07 09:15:00
4:36 AM,32.9,27.5,81,30.05,10.0,SSE,4.6,-,N/A,,Mostly Cloudy,150,2012-11-07 09:36:00
4:55 AM,33.4,27.3,78,30.06,10.0,SE,3.5,-,N/A,,Overcast,130,2012-11-07 09:55:00
5:15 AM,34.2,27.9,78,30.07,10.0,SE,3.5,-,N/A,,Overcast,140,2012-11-07 10:15:00
5:36 AM,34.9,28.0,76,30.07,10.0,SSE,3.5,-,N/A,,Overcast,160,2012-11-07 10:36:00
5:55 AM,35.2,28.0,75,30.08,10.0,Calm,Calm,-,N/A,,Overcast,0,2012-11-07 10:55:00
6:15 AM,35.6,28.4,75,30.08,10.0,Calm,Calm,-,N/A,,Overcast,0,2012-11-07 11:15:00
6:35 AM,35.6,28.4,75,30.08,10.0,Calm,Calm,-,N/A,,Overcast,0,2012-11-07 11:35:00
6:55 AM,35.6,28.6,76,30.09,10.0,Calm,Calm,-,N/A,,Overcast,0,2012-11-07 11:55:00
7:15 AM,35.6,28.9,77,30.10,10.0,Calm,Calm,-,N/A,,Overcast,0,2012-11-07 12:15:00
7:35 AM,35.6,29.3,78,30.11,10.0,Calm,Calm,-,N/A,,Overcast,0,2012-11-07 12:35:00
7:55 AM,35.6,29.7,79,30.11,10.0,Calm,Calm,-,N/A,,Overcast,0,2012-11-07 12:55:00
8:15 AM,36.3,29.1,75,30.12,10.0,South,3.5,-,N/A,,Overcast,190,2012-11-07 13:15:00
8:36 AM,36.5,29.3,75,30.13,10.0,Calm,Calm,-,N/A,,Overcast,0,2012-11-07 13:36:00
8:55 AM,36.9,29.5,75,30.13,10.0,Calm,Calm,-,N/A,,Overcast,0,2012-11-07 13:55:00
9:16 AM,37.4,30.0,75,30.13,10.0,Calm,Calm,-,N/A,,Overcast,0,2012-11-07 14:16:00
9:35 AM,37.8,29.5,72,30.13,10.0,SE,3.5,-,N/A,,Overcast,130,2012-11-07 14:35:00
9:55 AM,38.3,30.2,73,30.13,10.0,SSE,3.5,-,N/A,,Overcast,160,2012-11-07 14:55:00
10:15 AM,38.7,30.4,72,30.13,10.0,Calm,Calm,-,N/A,,Overcast,0,2012-11-07 15:15:00
10:35 AM,39.2,30.7,72,30.13,10.0,SSW,3.5,-,N/A,,Overcast,200,2012-11-07 15:35:00
10:55 AM,40.1,30.6,69,30.14,10.0,Calm,Calm,-,N/A,,Overcast,0,2012-11-07 15:55:00
11:15 AM,41.4,30.4,65,30.13,10.0,SE,5.8,-,N/A,,Overcast,140,2012-11-07 16:15:00
11:35 AM,42.3,29.7,61,30.14,10.0,East,6.9,-,N/A,,Overcast,100,2012-11-07 16:35:00
11:55 AM,43.5,29.7,58,30.13,10.0,SSE,6.9,-,N/A,,Mostly Cloudy,150,2012-11-07 16:55:00
12:15 PM,42.8,29.8,60,30.13,10.0,SSE,8.1,-,N/A,,Overcast,150,2012-11-07 17:15:00
12:35 PM,42.8,29.3,59,30.12,10.0,SE,8.1,-,N/A,,Overcast,140,2012-11-07 17:35:00
12:55 PM,42.3,28.6,58,30.12,10.0,SE,9.2,-,N/A,,Overcast,140,2012-11-07 17:55:00
1:16 PM,43.0,29.3,59,30.11,10.0,ESE,10.4,-,N/A,,Overcast,120,2012-11-07 18:16:00
1:35 PM,42.4,29.3,60,30.12,10.0,SE,9.2,-,N/A,,Overcast,140,2012-11-07 18:35:00
1:55 PM,42.4,28.8,58,30.12,10.0,SE,10.4,-,N/A,,Overcast,130,2012-11-07 18:55:00
2:15 PM,42.1,29.1,60,30.12,10.0,SE,6.9,-,N/A,,Overcast,130,2012-11-07 19:15:00
2:35 PM,42.1,29.1,60,30.12,10.0,SSE,5.8,-,N/A,,Overcast,150,2012-11-07 19:35:00
2:55 PM,41.9,28.9,60,30.12,10.0,SSE,3.5,-,N/A,,Overcast,160,2012-11-07 19:55:00
3:15 PM,41.9,29.7,62,30.12,10.0,SE,3.5,-,N/A,,Overcast,130,2012-11-07 20:15:00
3:36 PM,41.9,29.3,61,30.12,10.0,SE,3.5,-,N/A,,Overcast,130,2012-11-07 20:36:00
3:55 PM,41.5,29.3,62,30.13,10.0,Calm,Calm,-,N/A,,Overcast,0,2012-11-07 20:55:00
4:15 PM,41.4,29.1,62,30.13,10.0,SE,5.8,-,N/A,,Overcast,130,2012-11-07 21:15:00
4:40 PM,41.0,28.6,61,30.12,10.0,SE,4.6,-,N/A,,Overcast,130,2012-11-07 21:40:00
4:55 PM,40.8,28.9,63,30.12,10.0,ESE,4.6,-,N/A,,Overcast,120,2012-11-07 21:55:00
5:15 PM,40.3,28.9,64,30.13,10.0,Calm,Calm,-,N/A,,Overcast,0,2012-11-07 22:15:00
5:35 PM,40.5,28.9,64,30.13,10.0,Calm,Calm,-,N/A,,Overcast,0,2012-11-07 22:35:00
5:55 PM,40.6,28.0,61,30.13,10.0,ESE,3.5,-,N/A,,Overcast,120,2012-11-07 22:55:00
6:15 PM,39.7,29.1,66,30.13,10.0,SE,3.5,-,N/A,,Overcast,130,2012-11-07 23:15:00
6:35 PM,36.9,28.4,71,30.14,10.0,ESE,3.5,-,N/A,,Mostly Cloudy,120,2012-11-07 23:35:00
6:55 PM,36.3,28.6,74,30.15,10.0,Calm,Calm,-,N/A,,Scattered Clouds,0,2012-11-07 23:55:00
7:16 PM,34.2,28.6,80,30.15,10.0,Calm,Calm,-,N/A,,Overcast,0,2012-11-08 00:16:00
7:35 PM,34.0,28.8,81,30.15,10.0,Calm,Calm,-,N/A,,Overcast,0,2012-11-08 00:35:00
7:55 PM,33.4,29.1,84,30.15,10.0,Calm,Calm,-,N/A,,Overcast,0,2012-11-08 00:55:00
8:16 PM,33.3,29.3,85,30.15,10.0,Calm,Calm,-,N/A,,Overcast,0,2012-11-08 01:16:00
8:35 PM,33.3,29.1,85,30.15,10.0,Calm,Calm,-,N/A,,Overcast,0,2012-11-08 01:35:00
9:15 PM,32.9,29.7,88,30.15,10.0,Calm,Calm,-,N/A,,Overcast,0,2012-11-08 02:15:00
9:35 PM,32.9,29.7,88,30.15,10.0,SSE,3.5,-,N/A,,Mostly Cloudy,150,2012-11-08 02:35:00
9:55 PM,35.1,28.4,77,30.16,10.0,SSE,3.5,-,N/A,,Scattered Clouds,150,2012-11-08 02:55:00
10:15 PM,34.7,28.8,79,30.15,10.0,SSE,3.5,-,N/A,,Clear,160,2012-11-08 03:15:00
10:35 PM,34.2,28.9,81,30.15,10.0,SSE,3.5,-,N/A,,Clear,160,2012-11-08 03:35:00
10:55 PM,34.2,28.9,81,30.15,10.0,South,3.5,-,N/A,,Clear,180,2012-11-08 03:55:00
11:15 PM,32.2,28.0,85,30.15,10.0,South,4.6,-,N/A,,Clear,180,2012-11-08 04:15:00
11:35 PM,34.7,29.3,81,30.15,10.0,South,3.5,-,N/A,,Clear,170,2012-11-08 04:35:00
11:55 PM,30.2,26.6,86,30.15,10.0,Calm,Calm,-,N/A,,Clear,0,2012-11-08 04:55:00